Torna al catalogo

STARLINK-34990

AttivoComunicazioniSSO
NORAD 65244·PAYLOAD·🇺🇸 United States

Lanciato Aug 18, 2025 da Vandenberg Space Force Base

Loading…

Prossimi Passaggi (prossime 24 ore)

TLE

AggiornatoSource: CelesTrak SupGP

Epoca: Sep 14, 2026, 20:46 UTC

1 65244C 25179K   26257.86576389  .00000659  00000+0  20467-4 0  2578
2 65244  97.2829 297.2906 0001008 100.6315 147.9938 15.33431666    10

Traccia STARLINK-34990 in tempo reale con AllMySat

Download on the App Store